Regional Weather Roundup
Issued by NWS

Home | Current Version | Previous Version | Text Only | Print | Product List | Glossary On
Versions: 1 2 3 4 5 6 7 8 9 10 11 12 13 14 15 16 17 18 19 20 21 22 23 24 25 26 27 28 29 30 31 32 33 34 35 36 37 38 39 40 41 42 43 44 45 46 47 48 49 50
000
ASUS43 KDMX 270906
RWRIA

WEATHER ROUNDUP FOR IOWA
NATIONAL WEATHER SERVICE DES MOINES IA
400 AM CDT FRI APR 27 2018

NOTE: "FAIR" INDICATES FEW OR NO CLOUDS BELOW 12,000 FEET WITH NO
SIGNIFICANT WEATHER AND/OR OBSTRUCTIONS TO VISIBILITY.

* - THESE STATIONS ARE NOT NWS STATIONS...THUS NOT UNDER NWS
QUALITY CONTROL.  THEY ALSO DO NOT REPORT WEATHER SUCH
AS PRECIPITATION OR FOG.

IAZ001>003-012>014-020>022-031>034-043>046-271000-
   NORTHWEST IOWA

CITY           SKY/WX    TMP DP  RH WIND       PRES   REMARKS
CARROLL *      CLEAR     37  32  81 W8        29.98F WCI  31
CHEROKEE *     CLEAR     34  31  90 S6        29.96F WCI  29
DENISON *      CLEAR     36  30  80 CALM      30.01S
LE MARS *      CLEAR     36  30  80 S9        29.97F WCI  29
ORANGE CITY *  CLEAR     39  34  81 W10       29.95F WCI  32
SHELDON *        N/A     39  32  75 SW8       29.92F WCI  34
SIOUX CITY     CLEAR     37  29  72 CALM      29.99F
SPENCER        CLEAR     34  29  82 SW7       29.94F WCI  28
STORM LAKE *   CLEAR     37  30  75 W8        29.96F WCI  31
$$

IAZ055>058-069>071-079>083-090>094-271000-
   SOUTHWEST IOWA

CITY           SKY/WX    TMP DP  RH WIND       PRES   REMARKS
ATLANTIC *     CLEAR     32  30  93 S6        30.01S WCI  26
AUDUBON *      CLEAR     34  28  80 CALM      30.01R
CLARINDA *     CLEAR     32  30  93 CALM      30.04F
COUNCIL BLFS * CLEAR     43  32  65 W5        30.02F
CRESTON *      CLEAR     36  32  87 NW9       30.00S WCI  29
HARLAN  *      CLEAR     37  30  75 CALM      30.03F
LAMONI         CLEAR     39  31  72 NW9       29.98S WCI  33
RED OAK *      PTCLDY    37  30  75 CALM      30.02F
SHENANDOAH *   CLEAR     36  28  75 SW3       30.04F
$$

IAZ047>049-059>061-072>074-084-271000-
   CENTRAL IOWA

CITY           SKY/WX    TMP DP  RH WIND       PRES   REMARKS
AMES           CLEAR     39  31  72 NW6       29.95F WCI  35
ANKENY *       CLEAR     39  32  75 W6        29.98R WCI  35
BOONE *        CLEAR     41  32  70 W7        29.95S
CHARITON *     CLEAR     41  32  70 W8        29.96S
DES MOINES     CLEAR     43  31  62 NW5       29.97S
GRINNELL*      CLEAR     39  31  72 NW7       29.94S WCI  34
KNOXVILLE *    CLEAR     39  30  70 W9        29.94S WCI  33
MARSHALLTOWN   CLEAR     37  31  78 W12       29.93S WCI  29
NEWTON *       CLEAR     41  32  70 NW7       29.94S
PELLA *        CLEAR     42  32  67 NW8       29.95F
PERRY *        FAIR      36  28  74 W6        29.98S WCI  31
$$

IAZ004>006-015-016-023>025-035-036-271000-
   NORTH CENTRAL IOWA

CITY           SKY/WX    TMP DP  RH WIND       PRES   REMARKS
ALGONA *       CLEAR     37  34  87 W9        29.93F WCI  31
CLARION *      CLEAR     32  28  86 SW5       29.94F WCI  27
ESTHERVILLE    CLEAR     36  32  85 SW12      29.92F WCI  28
FORT DODGE *   CLEAR     39  32  76 W5        29.96F
MASON CITY     CLEAR     35  29  78 W8        29.92F WCI  29
FOREST CITY *  FAIR      32  30  93 CALM      29.92S
WEBSTER CITY * CLEAR     36  30  80 W8        29.93F WCI  29
IOWA FALLS *   FAIR      36  31  85 W7        29.94S WCI  30
$$

IAZ007>011-017>019-026>030-037>042-050>054-066-271000-
   NORTHEAST IOWA

CITY           SKY/WX    TMP DP  RH WIND       PRES   REMARKS
CEDAR RAPIDS   FAIR      40  32  73 NW10      29.89R WCI  33
CHARLES CITY * FAIR      37  34  87 NW7       29.90S WCI  32
CLINTON *      FAIR      43  34  70 N12       29.85R
DECORAH *      FAIR      41  30  65 SW3       29.86F
DUBUQUE        FAIR      45  29  53 NE9       29.86S
MONTICELLO *   FAIR      43  34  70 N7        29.87S
OELWEIN *      FAIR      39  36  87 NW6       29.90S WCI  35
$$

IAZ064-065-067-068-078-271000-
   EAST CENTRAL IOWA

CITY           SKY/WX    TMP DP  RH WIND       PRES   REMARKS
DAVENPORT      FAIR      44  34  67 NW10      29.88R
IOWA CITY      FAIR      45  33  63 NW9       29.91R
MT. PLEASANT * CLEAR     45  32  61 NW10      29.90S
MUSCATINE *    FAIR      45  34  65 NW9       29.89R
QUAD CITIES    FAIR      49  36  61 NW8       29.85R
$$

IAZ062-063-075>077-085>089-095>099-271000-
   SOUTHEAST IOWA

CITY           SKY/WX    TMP DP  RH WIND       PRES   REMARKS
BURLINGTON     CLEAR     47  33  58 NW10      29.87S
FAIRFIELD *    CLEAR     41  30  65 NW9       29.91S
FORT MADISON * CLEAR     46  36  66 NW10      29.90S
KEOKUK *       CLEAR     48  32  53 NW10G17   29.89S
OSKALOOSA *    FAIR      40  30  68 NW9       29.93S WCI  34
CENTERVILLE *    N/A     37  32  81 W10       29.96S WCI  30
OTTUMWA        CLEAR     44  30  57 NW12      29.92F
WASHINGTON *   CLEAR     43  34  70 NW12      29.91S
$$

ABBREVIATIONS USED IN REMARKS
   TC - TEMPERATURES IN CELSIUS
  WCI - WIND CHILL INDEX
   HX - HEAT INDEX
  VSB - VISIBILITY
$$





USA.gov is the U.S. government's official web portal to all federal, state and local government web resources and services.